Terminal Aerodrome Forecast
Issued by NWS Kansas City/Pleasant Hill, MO

Home | Current Version | Previous Version | Text Only | Print | Product List | Glossary On
Versions: 1 2 3 4 5 6 7 8 9 10 11 12 13 14
164
FTUS43 KEAX 030159 AAA
TAFMCI
TAF AMD
KMCI 030159Z 0302/0324 22015G28KT P6SM OVC028
     FM030300 26018G25KT P6SM VCSH OVC015
     FM031200 31014G24KT P6SM BKN020
     FM032100 31012KT P6SM SCT020=

USA.gov is the U.S. government's official web portal to all federal, state and local government web resources and services.